Location: Baia Mare
(47.6567°N, 23.5850°E)
Time: 02:36:46

ISS - Pass Details

Date: 05 April 2018
Orbit: 403 x 406 km, 51.6° (Epoch: 24 March)

Event Time Altitude Azimuth Distance (km) Brightness Sun altitude
Rises 19:18:47 0° 274° (W) 2,322 2.9 6.2°
Reaches altitude 10° 19:20:56 10° 282° (WNW) 1,463 1.4 5.8°
Drops below altitude 10° 19:27:11 10° 67° (ENE) 1,465 -1.5 4.8°
Enters shadow 19:30:44 -5° 77° (ENE) 2,888 -0.1 4.2°
Exits shadow 20:06:44 -79° 103° (ESE) 12,916 3.6 -1.8°
Maximum altitude 21:00:54 52° 15° (NNE) 511 -3.3 -10.5°
